Probability
0 0 0 0 0 0 0 0 0 0 0 0 0 0 0 0 0 0 45 100 100 100 100 100 100 100 100 100 100 100 100 100 100 100 100 100 100 100 100 100 100 100 100 100 100 100 100 100 100
0 0 0 0 0 0 0 0 0 0 0 3 39 19 45 42 65 90 94 100 100 100 100 100 100 100 100 100 100 100 100 100 100 100 100 100 100 100 100 100 100 100 100 100 100 100 100 100 100
0 0 0 0 0 0 0 0 0 0 13 58 61 74 87 100 100 100 100 100 100 100 100 100 100 100 100 100 100 100 100 100 100 100 100 100 100 100 100 100 100 100 100 100 100 100 100 100 100
0 0 0 0 0 0 0 0 0 3 0 6 68 65 81 100 100 100 100 100 100 100 100 100 100 100 100 100 100 100 100 100 100 100 100 100 100 100 100 100 100 100 100 100 100 100 100 100 97
0 0 0 0 0 0 0 0 0 0 0 0 10 29 65 97 97 100 100 100 100 100 100 100 100 100 100 100 100 100 100 100 100 100 100 100 100 100 100 100 100 100 100 100 100 100 90 84 61
0 0 0 0 0 0 0 0 0 0 0 23 10 26 55 84 100 100 100 100 100 100 100 100 100 100 100 100 100 100 100 100 100 100 100 100 100 100 100 100 100 100 100 100 97 74 52 35 29
0 0 0 0 0 0 0 0 0 0 0 6 10 13 55 100 100 100 100 87 77 97 100 100 100 100 100 100 100 100 100 100 100 100 100 100 100 100 100 100 100 100 100 94 45 0 3 23 6
0 0 0 0 0 0 0 0 0 0 0 3 10 23 84 100 100 87 0 0 0 0 23 97 100 100 100 100 100 100 100 100 100 100 100 100 100 100 100 100 100 100 100 100 61 23 3 3 3
0 0 0 0 0 0 0 0 0 0 3 3 10 55 100 100 90 0 0 0 0 0 0 13 100 100 100 100 100 100 100 100 100 100 100 100 100 100 100 100 100 100 100 100 48 6 0 0 0
0 0 0 0 0 0 0 0 0 0 3 48 97 100 100 100 6 0 0 0 0 0 0 0 100 100 100 100 100 100 100 100 97 97 94 97 94 100 100 100 100 100 100 87 42 13 3 0 0
0 0 0 0 0 0 0 0 0 0 0 23 100 100 100 52 0 0 0 0 0 0 0 0 94 100 100 100 100 100 100 100 87 84 42 23 61 52 87 84 94 81 68 52 23 0 0 0 0
0 0 0 0 0 0 0 0 0 0 0 10 100 100 100 10 0 0 0 0 0 0 0 0 13 94 100 100 100 100 97 94 23 19 32 23 48 23 29 32 19 13 10 0 0 0 0 0 0
0 0 0 0 0 0 0 0 0 0 3 71 100 100 100 29 0 0 0 0 0 0 0 0 0 68 97 100 97 87 77 58 16 55 81 74 87 84 74 58 0 0 0 0 0 0 0 0 0
0 0 0 0 0 0 0 0 0 19 55 94 100 100 100 77 0 0 0 0 0 0 0 0 0 45 77 87 87 81 77 42 13 19 6 3 35 74 29 0 0 0 0 0 0 0 0 0 0
0 0 0 0 0 0 0 0 0 35 42 74 77 94 97 74 3 0 0 0 0 0 0 0 0 55 35 26 52 65 58 16 0 0 0 0 0 0 0 0 0 0 0 0 0 0 0 0 0
0 0 0 0 0 0 0 0 0 16 42 52 19 10 52 29 0 0 0 0 0 0 0 0 3 48 19 0 0 0 0 0 0 0 0 0 0 0 0 0 0 0 0 0 0 0 0 0 0
0 0 0 0 0 0 0 0 0 0 16 6 3 6 16 10 3 0 0 0 0 0 0 0 0 13 0 0 0 0 0 0 0 0 0 0 0 0 0 0 0 0 0 0 0 0 0 0 0
0 0 0 0 0 0 0 0 0 0 0 6 3 6 19 6 3 0 0 0 0 0 0 0 0 0 0 0 0 0 0 0 0 0 0 0 0 0 0 0 0 0 0 0 0 0 0 0 0
0 0 0 0 0 0 0 0 0 0 0 0 0 3 10 6 0 0 0 0 0 0 0 0 0 0 0 0 0 0 0 0 0 0 0 0 0 0 0 0 0 0 0 0 0 0 0 0 0
0 0 0 0 0 0 0 0 0 0 0 0 0 0 3 0 0 0 0 0 0 0 0 0 0 0 0 0 0 0 0 0 0 0 0 0 0 0 0 0 0 0 0 0 0 0 0 0 0
0 0 0 0 0 0 0 0 0 0 0 0 0 0 0 0 0 0 0 0 0 0 0 0 0 0 0 0 0 0 0 0 0 0 0 0 0 0 0 0 0 0 0 0 0 0 0 0 0
0 0 0 0 0 0 0 0 0 0 0 0 0 0 0 0 0 0 0 0 0 0 0 0 0 0 0 0 0 0 0 0 0 0 0 0 0 0 0 0 0 0 0 0 0 0 0 0 0
0 0 0 0 0 0 0 0 0 0 0 0 0 0 0 0 0 0 0 0 0 0 0 0 0 0 0 0 0 0 0 0 0 0 0 0 0 0 0 0 0 0 0 0 0 0 0 0 0
0 0 0 0 0 0 0 0 0 0 0 0 0 0 0 0 0 0 0 0 0 0 0 0 0 0 0 0 0 0 0 0 0 0 0 0 0 0 0 0 0 0 0 0 0 0 0 0 0
0 0 0 0 0 0 0 0 0 0 0 0 0 0 0 0 0 0 0 0 0 0 0 0 0 0 0 0 0 0 0 0 0 0 0 0 0 0 0 0 0 0 0 0 0 0 0 0 0
0 0 0 0 0 0 0 0 0 0 0 0 0 0 0 0 0 0 0 0 0 0 0 0 0 0 0 0 0 0 0 0 0 0 0 0 0 0 0 0 0 0 0 0 0 0 0 0 0
0 0 0 0 0 0 0 0 0 0 0 0 0 0 0 0 0 0 0 0 0 0 0 0 0 0 0 0 0 0 0 0 0 0 0 0 0 0 0 0 0 0 0 0 0 0 0 0 0
0 0 0 0 0 0 0 0 0 0 0 0 0 0 0 0 0 0 0 0 0 0 0 0 0 0 0 0 0 0 0 0 0 0 0 0 0 0 0 0 0 0 0 0 0 0 0 0 0
0 0 0 0 0 0 0 0 0 0 0 0 0 0 0 0 0 0 0 0 0 0 0 0 0 0 0 0 0 0 0 0 0 0 0 0 0 0 0 0 0 0 0 0 0 0 0 0 0
0 0 0 0 0 0 0 0 0 0 0 0 0 0 0 0 0 0 0 0 0 0 0 0 0 0 0 0 0 0 0 0 0 0 0 0 0 0 0 0 0 0 0 0 0 0 0 0 0
Height
5881 5883 5884 5886 5888 5889 5891 5894 5895 5896 5895 5893 5893 5892 5893 5892 5891 5891 5889 5885 5884 5884 5883 5882 5881 5880 5879 5879 5880 5881 5883 5884 5886 5886 5887 5888 5887 5887 5887 5887 5887 5887 5887 5887 5887 5888 5889 5889 5889
5880 5882 5885 5887 5888 5889 5892 5893 5895 5894 5894 5893 5893 5893 5891 5890 5888 5887 5885 5883 5881 5880 5879 5879 5879 5878 5878 5878 5879 5880 5882 5883 5884 5884 5884 5885 5884 5884 5884 5883 5883 5883 5884 5884 5883 5883 5883 5884 5885
5880 5882 5885 5887 5888 5890 5893 5893 5894 5893 5893 5892 5892 5890 5889 5887 5886 5885 5882 5880 5878 5876 5876 5876 5877 5877 5877 5876 5877 5878 5878 5879 5881 5881 5881 5881 5881 5881 5881 5880 5880 5880 5880 5879 5879 5880 5880 5881 5881
5880 5882 5885 5887 5889 5891 5893 5894 5893 5894 5892 5891 5890 5888 5886 5884 5882 5880 5878 5877 5876 5875 5875 5875 5875 5875 5875 5874 5875 5877 5877 5877 5877 5876 5876 5876 5876 5876 5876 5876 5876 5876 5876 5876 5876 5876 5876 5877 5876
5881 5882 5885 5887 5889 5891 5892 5892 5892 5892 5891 5890 5888 5886 5885 5883 5881 5879 5877 5875 5875 5874 5873 5872 5872 5872 5872 5873 5874 5874 5875 5875 5874 5874 5874 5874 5873 5873 5872 5871 5871 5871 5871 5871 5871 5871 5870 5870 5871
5881 5883 5886 5887 5889 5891 5891 5892 5890 5890 5888 5887 5886 5884 5883 5882 5882 5880 5877 5876 5875 5873 5873 5871 5870 5869 5870 5870 5871 5872 5873 5874 5874 5874 5874 5873 5872 5871 5871 5870 5868 5867 5867 5866 5866 5866 5865 5864 5864
5882 5883 5885 5887 5888 5889 5889 5889 5888 5887 5886 5885 5883 5881 5882 5882 5882 5878 5876 5874 5873 5871 5870 5869 5869 5869 5869 5869 5870 5870 5871 5872 5873 5873 5873 5871 5870 5869 5868 5867 5865 5865 5864 5863 5862 5861 5860 5857 5856
5881 5883 5884 5886 5887 5886 5886 5885 5886 5885 5885 5884 5881 5880 5881 5882 5880 5878 5876 5874 5872 5869 5868 5868 5866 5866 5866 5867 5868 5869 5871 5871 5871 5870 5868 5867 5865 5864 5863 5862 5861 5860 5859 5857 5855 5855 5854 5852 5851
5881 5883 5883 5884 5885 5885 5884 5883 5883 5883 5883 5882 5880 5881 5881 5881 5880 5878 5877 5874 5871 5868 5868 5866 5863 5863 5864 5866 5866 5867 5867 5867 5865 5864 5862 5861 5860 5859 5858 5856 5855 5853 5852 5851 5849 5848 5848 5847 5845
5880 5882 5881 5881 5881 5882 5881 5881 5881 5881 5881 5880 5879 5880 5879 5880 5879 5877 5875 5875 5871 5868 5867 5865 5863 5863 5864 5865 5865 5862 5862 5861 5860 5858 5856 5855 5854 5853 5852 5850 5848 5847 5847 5846 5844 5843 5842 5840 5839
5878 5879 5879 5878 5878 5879 5880 5880 5880 5879 5878 5879 5878 5879 5879 5879 5879 5876 5875 5874 5872 5869 5866 5865 5863 5862 5863 5863 5862 5860 5858 5856 5855 5853 5852 5851 5849 5848 5847 5845 5844 5842 5841 5840 5838 5836 5835 5834 5832
5874 5875 5876 5877 5877 5876 5877 5878 5878 5876 5877 5878 5878 5877 5878 5878 5877 5874 5873 5871 5870 5867 5866 5864 5863 5861 5860 5859 5858 5857 5855 5853 5850 5849 5847 5846 5846 5845 5843 5842 5840 5838 5836 5834 5832 5830 5829 5828 5826
5870 5871 5874 5875 5875 5875 5874 5874 5875 5873 5874 5875 5876 5876 5876 5877 5876 5872 5870 5868 5867 5865 5864 5864 5863 5861 5859 5857 5855 5853 5851 5849 5846 5844 5844 5842 5841 5839 5837 5836 5834 5832 5829 5827 5825 5824 5822 5820 5817
5865 5869 5872 5873 5872 5872 5873 5872 5871 5870 5871 5873 5874 5874 5874 5876 5874 5870 5867 5865 5864 5863 5862 5862 5861 5859 5857 5855 5851 5848 5846 5844 5843 5842 5839 5838 5836 5834 5832 5831 5828 5825 5821 5819 5818 5817 5814 5811 5808
5862 5866 5869 5870 5868 5869 5870 5869 5866 5866 5866 5868 5870 5871 5873 5873 5871 5868 5864 5863 5863 5862 5861 5861 5859 5857 5855 5852 5848 5846 5843 5841 5839 5837 5835 5833 5832 5831 5829 5827 5824 5820 5816 5813 5811 5809 5805 5802 5799
5859 5863 5865 5866 5864 5864 5866 5866 5861 5860 5861 5863 5866 5868 5869 5868 5867 5864 5860 5860 5860 5858 5857 5856 5856 5854 5851 5849 5847 5844 5842 5839 5836 5834 5833 5830 5828 5825 5823 5820 5817 5813 5810 5807 5805 5801 5798 5796 5793
5855 5856 5860 5862 5860 5860 5859 5861 5857 5857 5857 5858 5861 5863 5863 5863 5862 5859 5856 5855 5857 5855 5854 5853 5853 5851 5848 5846 5844 5841 5837 5834 5831 5829 5826 5824 5822 5819 5816 5812 5809 5806 5802 5799 5795 5792 5790 5786 5781
5848 5849 5853 5857 5855 5854 5853 5854 5853 5853 5854 5855 5856 5858 5859 5858 5858 5855 5853 5853 5853 5851 5850 5848 5848 5848 5846 5844 5841 5838 5834 5830 5826 5822 5820 5818 5815 5812 5808 5805 5801 5797 5793 5790 5785 5780 5776 5772 5766
5840 5841 5844 5851 5849 5846 5846 5847 5848 5849 5850 5851 5851 5852 5854 5854 5852 5851 5849 5850 5849 5848 5846 5844 5844 5844 5842 5839 5835 5832 5828 5824 5820 5817 5814 5810 5807 5804 5800 5796 5791 5786 5781 5776 5771 5765 5760 5754 5749
5833 5834 5838 5845 5842 5838 5839 5840 5841 5843 5845 5846 5846 5845 5846 5847 5846 5845 5845 5845 5843 5842 5840 5839 5838 5836 5834 5832 5828 5825 5821 5816 5813 5810 5806 5801 5798 5794 5788 5783 5778 5772 5767 5762 5756 5750 5744 5738 5732
5825 5828 5833 5837 5834 5830 5832 5832 5834 5837 5839 5840 5840 5840 5840 5841 5840 5839 5838 5838 5838 5835 5833 5832 5829 5826 5822 5819 5816 5813 5810 5807 5803 5799 5795 5790 5786 5781 5775 5769 5763 5758 5753 5747 5741 5735 5728 5722 5716
5818 5822 5825 5828 5827 5824 5825 5823 5827 5829 5832 5833 5834 5834 5835 5835 5835 5833 5832 5831 5830 5828 5825 5822 5818 5815 5813 5810 5806 5802 5800 5797 5793 5789 5784 5779 5774 5769 5763 5757 5750 5744 5738 5732 5725 5719 5712 5705 5700
5812 5815 5815 5817 5818 5816 5817 5815 5819 5822 5824 5826 5827 5828 5830 5830 5828 5827 5825 5824 5823 5822 5819 5814 5811 5808 5805 5802 5799 5795 5792 5789 5783 5778 5773 5768 5762 5757 5750 5744 5737 5729 5721 5715 5709 5702 5696 5691 5687
5802 5806 5806 5807 5808 5807 5812 5811 5809 5813 5817 5818 5820 5821 5822 5822 5820 5818 5817 5816 5816 5815 5812 5808 5804 5800 5798 5795 5792 5787 5782 5778 5773 5768 5763 5756 5749 5742 5735 5730 5723 5716 5708 5701 5694 5687 5682 5679 5675
5796 5799 5800 5799 5800 5801 5806 5803 5804 5808 5811 5812 5812 5813 5814 5814 5812 5811 5810 5808 5808 5806 5802 5798 5794 5790 5787 5784 5781 5777 5773 5768 5762 5757 5751 5744 5736 5728 5723 5715 5708 5702 5695 5686 5680 5674 5670 5666 5663
5790 5791 5793 5794 5794 5796 5797 5796 5800 5803 5805 5806 5806 5805 5805 5805 5804 5803 5802 5800 5799 5795 5790 5788 5786 5782 5778 5775 5772 5768 5763 5758 5752 5745 5739 5732 5725 5716 5709 5701 5695 5687 5679 5672 5668 5664 5659 5654 5651
5783 5784 5788 5789 5787 5787 5790 5792 5796 5799 5800 5800 5799 5797 5796 5797 5796 5794 5793 5791 5789 5785 5782 5780 5776 5772 5768 5766 5762 5758 5752 5747 5742 5733 5726 5720 5713 5706 5697 5688 5681 5673 5666 5661 5657 5653 5648 5644 5640
5778 5780 5782 5783 5782 5780 5782 5786 5790 5794 5794 5792 5790 5789 5788 5788 5787 5786 5785 5783 5781 5779 5775 5771 5767 5764 5760 5756 5752 5747 5744 5739 5731 5722 5715 5710 5704 5696 5687 5678 5671 5663 5656 5651 5646 5642 5637 5633 5627
5773 5774 5776 5778 5778 5775 5774 5781 5783 5785 5786 5785 5784 5783 5782 5781 5780 5780 5779 5777 5775 5773 5770 5763 5759 5755 5750 5745 5740 5737 5735 5730 5721 5711 5704 5698 5691 5684 5675 5668 5661 5654 5646 5641 5635 5631 5625 5618 5611
5768 5768 5769 5771 5770 5770 5770 5775 5774 5776 5778 5778 5778 5777 5776 5775 5773 5773 5771 5769 5766 5763 5760 5755 5750 5746 5743 5738 5733 5729 5724 5717 5708 5698 5692 5686 5679 5671 5662 5655 5649 5642 5636 5630 5624 5618 5610 5602 5595
Wind_Speed
10 12 13 12 10 12 12 8 4 2 4 5 11 15 18 20 19 17 16 17 15 13 12 13 12 10 10 12 11 10 11 13 14 14 14 15 15 14 14 15 15 17 18 18 19 19 20 20 21
14 14 12 11 7 9 10 8 4 4 4 6 11 13 15 14 12 13 14 13 11 11 11 9 8 8 8 9 10 11 11 12 14 15 16 16 17 17 17 17 17 18 18 19 20 20 21 21 22
14 12 10 9 8 8 6 2 2 3 2 5 7 10 12 11 12 13 12 12 12 11 9 8 10 10 10 8 8 7 9 10 13 13 14 16 16 17 18 19 19 18 19 20 20 21 23 24 26
13 13 9 9 10 8 6 4 6 5 4 4 3 6 11 12 14 16 16 14 11 9 9 8 8 7 3 4 4 5 8 11 12 12 13 14 14 13 14 15 17 18 19 21 23 25 27 26 26
13 11 11 13 13 9 6 4 8 10 10 9 5 7 10 11 14 17 15 15 13 12 10 7 6 2 1 3 6 10 12 12 12 10 11 11 12 13 14 15 16 18 19 20 22 25 27 26 27
14 11 11 12 11 6 3 3 6 9 11 12 10 11 12 13 15 18 16 15 18 19 12 11 13 10 8 7 7 10 11 11 11 10 10 10 10 12 14 15 15 16 18 19 21 23 26 27 28
14 12 11 10 8 6 5 1 4 9 12 12 13 16 16 13 16 22 21 18 20 18 19 16 18 16 11 9 8 6 8 9 9 10 11 12 13 14 15 16 17 18 19 19 20 22 25 26 27
11 11 12 11 12 10 7 4 4 8 11 13 16 18 20 20 23 22 18 17 22 20 17 14 14 15 12 10 9 8 10 13 14 15 16 17 17 17 18 19 20 20 21 20 20 21 23 24 27
9 11 12 11 11 8 8 6 7 10 12 14 15 18 23 23 23 21 21 23 23 21 19 21 16 12 13 11 11 13 14 16 18 22 23 22 21 21 22 23 23 24 24 23 23 23 24 26 28
11 12 13 10 9 10 11 11 9 10 14 14 16 21 23 22 22 21 22 24 22 23 25 24 21 13 5 11 13 14 13 18 22 24 23 22 22 24 24 24 24 24 25 25 24 24 26 28 29
12 13 13 12 12 14 17 16 14 14 17 18 20 22 23 25 25 23 21 18 20 22 23 22 20 14 5 3 9 11 13 17 19 20 22 23 23 24 24 23 24 25 26 26 25 26 27 28 29
17 16 15 13 14 18 22 20 17 16 18 21 24 25 25 28 29 25 20 17 18 21 22 17 11 8 3 4 9 14 16 18 20 19 20 23 24 24 24 24 23 24 25 27 27 26 27 30 34
23 20 16 14 15 20 23 24 22 18 21 24 27 28 28 26 23 22 21 19 17 18 20 16 14 10 7 11 15 18 22 22 23 26 25 26 26 26 28 29 28 28 29 30 30 30 33 36 38
28 22 17 16 20 23 25 25 24 25 26 27 28 28 28 23 19 21 23 21 18 18 19 19 20 17 13 13 17 21 22 21 20 21 23 27 29 30 30 31 30 32 34 33 31 33 36 39 40
30 25 20 20 25 25 25 23 24 27 30 31 32 33 33 17 16 21 23 21 19 18 18 20 23 20 16 13 14 18 20 21 24 23 24 27 28 27 28 29 32 33 33 33 35 38 40 41 41
30 27 25 24 26 26 28 22 23 24 27 30 32 31 24 13 17 22 25 23 19 19 20 23 24 21 16 13 15 17 19 20 21 21 25 27 26 27 29 31 32 33 35 37 38 41 43 44 44
32 32 27 25 27 27 30 26 29 27 25 24 22 16 15 13 18 23 24 21 19 20 23 25 22 18 15 15 17 19 21 21 21 23 26 26 27 29 31 34 35 36 39 41 41 43 46 47 47
35 35 31 26 28 32 33 31 32 30 29 27 23 16 13 14 20 22 22 20 21 23 25 27 23 20 18 19 21 22 23 23 24 25 25 26 28 31 33 35 38 40 41 42 44 47 49 50 51
36 37 35 28 32 36 36 35 34 33 31 28 25 19 17 17 20 23 22 22 24 25 27 29 28 27 26 26 27 29 28 26 26 26 26 27 29 32 35 38 41 43 45 47 49 51 54 55 57
39 40 37 30 35 39 38 38 37 34 29 24 21 21 17 18 22 25 23 25 26 28 30 33 35 33 32 32 32 32 32 31 30 31 31 32 33 35 40 43 45 46 49 51 52 55 58 59 60
41 39 35 32 37 41 41 40 39 37 35 31 26 20 16 20 24 27 28 29 31 32 34 37 38 37 37 38 39 38 38 38 36 36 35 36 39 43 46 48 48 50 52 53 54 57 59 60 57
39 35 33 33 37 41 44 46 43 43 39 33 23 18 18 22 27 30 32 33 34 35 37 39 40 40 41 41 42 42 43 44 40 41 41 42 47 51 52 52 51 51 53 55 57 59 58 54 46
35 32 35 36 40 44 44 48 47 45 40 31 22 21 24 29 32 34 34 36 37 37 41 42 43 43 43 43 42 41 41 41 41 43 45 48 54 58 56 56 56 56 54 55 59 59 52 44 41
35 33 37 39 41 46 42 45 46 43 36 31 28 28 29 32 34 35 36 38 39 40 41 43 45 44 45 45 44 42 41 42 45 46 51 57 61 62 59 58 58 57 55 57 58 53 44 41 43
36 35 36 38 40 42 39 43 43 39 36 34 33 34 36 37 38 39 40 41 41 42 43 45 47 46 49 45 44 45 43 43 45 50 57 63 65 64 59 57 58 57 59 57 51 43 41 44 45
32 34 34 36 37 39 38 39 37 38 38 38 39 39 40 41 43 44 43 43 44 45 49 44 45 49 53 45 48 51 45 41 46 52 60 66 66 59 55 57 57 58 54 46 42 43 44 45 44
28 32 33 35 37 40 38 37 33 31 30 32 34 35 37 39 39 36 36 39 44 46 47 47 49 52 54 53 55 52 42 41 50 56 60 63 61 56 54 55 56 50 42 42 44 44 43 44 46
29 31 35 37 38 40 38 34 30 26 26 26 26 28 32 36 35 34 37 41 45 48 51 52 54 59 59 53 47 39 39 46 53 55 56 56 53 52 50 52 47 43 41 42 42 44 45 48 53
25 30 33 36 40 41 41 36 34 29 28 27 26 27 29 31 35 36 38 42 46 47 51 54 53 59 57 48 34 32 41 50 52 52 52 51 49 49 50 46 43 43 43 43 44 48 52 56 59
24 29 33 37 39 41 41 39 38 36 34 34 32 31 30 33 36 38 40 43 47 49 50 57 54 48 46 44 43 52 56 50 49 51 51 49 49 49 44 41 43 43 44 46 50 54 58 61 63
Wind_Direction
170 174 181 188 199 207 210 205 180 259 333 351 348 352 349 339 344 345 338 330 324 325 324 308 292 283 273 269 274 279 277 275 277 282 284 282 277 272 269 270 272 274 273 272 272 272 273 272 270
171 177 177 173 172 183 188 192 182 270 299 355 340 334 329 325 327 327 332 336 326 327 321 298 273 260 254 257 265 271 278 282 284 285 286 283 278 276 273 267 265 266 269 270 272 275 277 278 279
177 184 178 172 165 159 155 156 228 276 301 14 345 332 324 316 309 307 305 318 323 316 310 288 268 263 256 256 266 285 291 286 283 286 288 288 286 278 274 271 267 267 268 267 270 275 277 280 278
178 186 180 179 173 171 166 100 58 27 40 45 323 320 332 327 324 317 298 296 304 299 292 287 287 304 314 333 262 287 290 286 282 285 290 295 300 293 279 277 273 271 274 276 273 274 277 278 278
194 199 182 171 169 173 175 75 43 30 33 30 354 320 342 338 340 338 310 287 299 316 302 277 269 289 107 259 247 264 272 277 281 276 278 289 296 294 287 281 279 275 274 278 278 280 282 279 274
199 208 187 173 171 152 112 38 17 3 8 14 4 347 349 344 340 345 333 308 301 299 289 280 265 258 263 280 281 262 267 276 285 283 279 286 292 289 287 284 283 282 282 281 281 282 284 283 277
206 211 197 185 207 195 188 194 7 349 347 353 359 356 354 352 359 0 356 351 336 304 284 304 280 280 286 262 246 249 266 274 278 284 290 290 285 285 286 282 282 282 281 283 284 283 284 282 281
216 217 215 218 242 235 232 230 317 330 334 339 353 347 345 356 3 5 10 9 358 337 311 322 290 270 257 253 260 270 283 290 294 297 297 294 293 292 288 285 282 280 278 275 272 273 275 277 279
236 230 234 241 245 255 269 289 317 319 319 328 336 333 337 350 358 3 12 11 1 357 356 354 342 294 266 273 286 284 291 301 302 299 297 298 298 295 288 284 284 284 282 278 272 267 268 270 271
247 252 253 259 278 291 302 305 316 302 304 316 323 325 331 342 347 350 3 14 20 22 19 19 27 27 292 271 291 281 284 296 295 294 295 293 291 290 288 287 288 287 285 285 282 274 267 268 270
255 253 258 268 282 288 301 301 310 297 298 304 308 318 328 333 335 337 351 6 25 27 18 14 30 53 80 249 272 293 290 287 290 292 293 293 293 292 290 287 285 283 283 285 288 283 277 276 276
251 254 258 266 277 282 301 303 293 289 287 290 295 308 320 327 338 336 345 360 21 23 16 13 24 11 327 260 268 279 283 283 282 288 293 297 296 292 285 278 280 285 290 293 295 293 289 288 290
244 250 258 266 276 278 297 298 289 273 274 278 288 299 308 329 338 340 343 351 5 14 17 13 12 356 310 287 286 284 282 295 284 271 285 295 293 294 294 293 297 297 298 299 299 299 298 297 295
243 248 256 264 266 267 289 296 278 272 269 272 282 293 300 319 331 337 337 348 355 2 4 360 357 349 325 298 296 293 289 300 303 297 298 301 295 296 298 301 303 302 303 303 302 300 299 298 295
245 249 252 257 260 262 277 285 273 266 267 268 273 281 291 309 335 335 334 340 340 347 352 349 350 342 327 311 304 297 294 304 308 296 300 303 298 295 299 305 303 301 302 301 301 302 302 299 293
247 248 248 251 259 263 270 264 256 262 265 269 271 275 275 301 334 330 330 330 333 336 344 344 347 345 334 320 318 313 309 312 309 296 296 301 302 303 306 308 308 305 303 302 300 298 297 297 294
249 248 246 247 256 257 258 253 254 262 267 271 276 275 270 301 319 323 321 321 326 332 339 339 346 349 338 327 331 330 325 322 316 308 306 307 307 306 307 308 306 304 303 302 299 296 295 295 292
249 250 247 243 247 249 250 250 254 259 266 276 281 281 292 302 308 311 309 316 326 329 331 334 338 338 332 328 332 334 330 323 318 314 309 306 303 303 305 306 304 303 302 301 298 296 296 294 292
246 249 248 244 245 248 248 249 255 257 263 271 276 270 275 284 295 301 305 314 322 321 325 327 327 322 320 320 326 330 331 329 323 317 314 312 310 309 308 308 306 306 306 305 303 301 300 297 295
245 248 250 246 249 249 247 248 253 260 265 267 265 260 257 274 289 296 305 315 313 316 319 319 320 318 315 315 318 323 328 329 328 323 319 319 317 315 316 315 311 310 308 306 304 302 299 296 295
246 249 250 247 246 248 249 250 250 255 258 262 263 262 261 272 285 290 299 307 308 310 311 311 312 312 314 314 316 320 326 327 324 324 324 325 323 319 317 315 311 309 307 305 303 302 301 299 295
248 250 247 242 240 244 248 251 251 255 260 262 261 266 269 272 276 282 291 299 302 303 303 302 305 308 310 313 314 317 320 323 323 322 322 322 323 320 315 311 308 307 307 305 304 304 304 302 297
249 246 246 241 239 243 245 253 256 255 256 258 258 261 263 265 272 280 285 289 293 296 297 295 296 299 303 306 309 313 317 320 321 321 318 314 316 319 315 311 309 307 306 305 305 305 303 300 294
246 241 244 245 246 249 250 253 256 256 258 259 255 255 259 266 273 278 281 283 288 294 292 289 288 290 294 297 301 306 312 316 317 317 315 314 314 316 315 313 310 308 307 307 307 303 299 295 293
248 245 244 248 252 255 255 253 255 253 253 260 265 265 263 264 268 273 279 283 289 288 282 280 281 283 287 291 296 302 306 310 310 313 315 315 314 314 313 310 308 309 309 308 304 298 294 292 293
250 245 243 249 255 257 256 257 259 255 255 262 267 270 266 266 267 271 278 282 283 279 277 276 287 289 289 290 293 294 300 306 307 310 313 314 312 312 310 309 309 309 309 304 300 299 296 295 293
244 242 243 248 255 257 257 259 263 263 265 270 271 271 266 268 273 275 277 280 282 280 286 293 294 288 287 289 292 292 295 304 308 310 311 311 310 310 310 310 310 309 306 303 302 299 297 295 293
243 240 239 244 255 262 263 264 267 268 271 273 271 269 268 268 269 269 271 277 280 285 289 293 293 291 288 289 292 300 303 306 309 310 311 309 309 310 312 311 309 306 304 302 299 297 297 297 297
243 245 243 243 249 259 264 267 269 271 276 280 276 273 274 271 269 274 280 284 284 284 285 290 296 302 289 280 289 303 307 310 310 308 308 310 311 313 312 309 306 305 305 303 302 300 300 299 298
242 246 244 245 250 254 261 267 270 272 275 279 282 278 276 281 281 283 286 287 284 285 290 295 302 298 299 304 316 323 321 312 309 310 311 313 312 310 309 307 306 306 307 307 304 301 299 299 299